Location: Cholupice
(49.9863°N, 14.4475°E)
Time: 18:29:33
(UTC+00:00)

Daily predictions for brighter satellites

Satellite Brightness Start Highest point End
(mag) Time Altitude Azimuth Time Altitude Azimuth Time Altitude Azimuth
Cosmos 1802 Rocket 4.1 17:57:00 10° S 18:03:10 89° E 18:09:28 10° N
GEOS 3 Rocket 4.0 17:58:15 10° SSE 18:03:28 67° SW 18:08:39 10° NW
YAOGAN 1 3.7 18:00:37 10° S 18:04:46 49° W 18:08:58 10° NNW
Cosmos 2333 4.3 17:59:23 10° SSW 18:05:04 62° ESE 18:10:45 10° NE
Cosmos 1400 Rocket 3.5 18:03:05 10° N 18:06:38 33° ENE 18:10:07 10° SE
USA 276 1.7 18:05:28 10° WSW 18:08:20 82° S 18:11:04 10° E
Cosmos 1707 4.1 18:09:34 10° NNE 18:12:08 18° ENE 18:14:39 10° ESE
CZ-4 R/B 1.2 18:09:48 10° SSE 18:13:33 66° ENE 18:17:23 10° N
Cosmos 2061 Rocket 4.1 18:08:34 10° S 18:14:56 71° E 18:21:22 10° NNE
Cosmos 1937 Rocket 3.6 18:09:43 10° NNW 18:15:00 83° WSW 18:20:18 10° SSE
COSMOS 2428 3.6 18:11:10 10° SSE 18:15:53 27° ESE 18:20:38 10° NE
Cosmos 1818 4.1 18:11:59 10° S 18:16:56 37° ESE 18:21:56 10° NE
Cosmos 1726 1.9 18:15:20 10° SSE 18:17:58 36° E 18:20:37 10° NNE
CSL-04 Debris 4.4 18:12:42 10° SE 18:17:59 52° ENE 18:23:18 10° N
Cosmos 2233 Rocket 3.9 18:12:25 10° S 18:18:30 70° E 18:24:38 10° NNE
Meteor 2-4 Rocket 3.9 18:14:08 10° NNW 18:20:06 87° W 18:26:01 10° S
Lacrosse 4 Rocket 1.6 18:15:59 10° NNW 18:20:18 60° NE 18:24:34 10° SE
Cosmos 1943 Rocket 3.4 18:16:05 10° NNW 18:20:39 26° NE 18:24:57 11° E
Cosmos 2292 Rocket 4.1 18:16:49 10° NNW 18:21:09 54° W 18:24:32 10° S
USA 59 Rocket 0.4 18:18:02 10° NNW 18:21:28 43° NE 18:25:31 12° ESE
Cosmos 1536 4.4 18:20:01 11° ESE 18:21:50 15° E 18:24:04 10° NE
ADEOS 4.0 18:19:05 10° S 18:24:17 68° WSW 18:29:31 10° NNW
Cosmos 1356 Rocket 4.5 18:21:24 10° N 18:25:01 27° ENE 18:28:04 13° ESE
Cosmos 841 Rocket 3.4 18:20:13 10° SSW 18:25:25 78° ESE 18:30:36 10° NNE
PAYLOAD B 4.3 18:22:02 10° SSE 18:27:38 83° ENE 18:33:17 10° NNW
Cosmos 1328 Rocket 3.7 18:24:58 10° N 18:29:10 51° ENE 18:33:20 10° SSE
Meteor 1-4 Rocket 2.9 18:27:39 10° N 18:30:00 26° ENE 18:31:19 18° ESE
USA 308 0.1 18:30:35 10° NW 18:31:33 48° NNE 18:31:36 47° NE
Cosmos 1674 2.5 18:28:30 10° N 18:31:48 51° ENE 18:35:03 10° SSE
Terra 3.6 18:30:28 12° E 18:32:53 16° ENE 18:35:46 10° NNE
Cosmos 1743 2.4 18:30:01 10° S 18:33:35 75° E 18:37:10 10° NNE
Tsikada Rocket 4.3 18:29:49 10° NNW 18:36:03 73° W 18:42:20 10° S
Cosmos 2278 Rocket 2.8 18:31:28 10° NNW 18:36:52 42° NE 18:41:08 16° ESE
NOSS 2-1 (C) 3.6 18:34:25 10° NW 18:37:57 57° NE 18:41:26 17° ESE
Meteor 1-18 Rocket 4.5 18:32:50 10° NNW 18:38:48 80° W 18:44:40 10° S
Kosmos-1783 4.4 18:37:07 10° S 18:38:14 16° SSE 18:38:14 16° SSE
Iridium 4 Rocket 3.0 18:36:38 10° N 18:40:55 82° W 18:45:03 10° S
CZ-4B R/B 3.2 18:35:26 10° SSE 18:40:56 81° ENE 18:46:23 10° NNW
CZ-4B R/B 3.2 18:37:18 10° S 18:41:01 63° WSW 18:44:58 10° NNW
Genesis I 3.7 18:38:23 10° SW 18:41:47 54° NW 18:45:14 10° NNE
ERS-1 Rocket 4.3 18:39:39 15° E 18:42:24 24° ENE 18:46:21 10° N
USA 290 3.2 18:42:42 10° N 18:45:40 31° ENE 18:46:59 23° ESE
TSX-5 3.1 18:43:31 10° NNW 18:46:41 82° ENE 18:48:41 20° SE
CARTOSAT-1 3.6 18:42:31 10° SSE 18:46:47 84° W 18:51:04 10° NNW
SPOT 5 3.5 18:45:11 17° ESE 18:48:11 35° ENE 18:52:19 10° N
NOSS 0 Rocket 4.5 18:48:43 10° S 18:54:14 34° ESE 18:59:47 10° NE
ATLAS 2AS CENTAUR R/B 4.1 18:47:39 10° W 18:54:24 41° NNW 19:00:57 10° NE
USA 306 3.8 18:52:25 10° S 18:54:09 20° SSE 18:54:09 20° SSE
Okean 3 Rocket 4.1 18:51:02 10° SSE 18:55:12 39° E 18:59:22 10° NNE
USA 215 4.2 18:51:17 10° ENE 18:56:21 23° SE 19:01:23 10° S
ATLAS CENTAUR R/B 4.4 18:52:09 10° WNW 18:56:44 31° SW 19:03:15 10° S
MOS 1-B 4.3 18:52:14 10° SSE 18:58:02 87° ENE 19:03:53 10° NNW
Okean O Rocket 1.6 18:54:28 13° SSE 18:58:22 75° ENE 19:02:49 10° N
Cosmos 2360 Rocket 3.4 18:53:42 10° SW 18:59:06 45° NW 19:04:33 10° NNE
Cosmos 1340 3.7 18:57:48 10° SW 19:00:55 41° WNW 19:04:04 10° N
USA 186 2.9 18:59:02 10° S 19:02:05 43° W 19:05:13 10° NNW
Resurs 01 Rocket 2.2 18:58:38 10° S 19:03:00 59° W 19:07:24 10° NNW
IKONOS-2 4.3 19:03:12 10° NNE 19:07:21 68° ESE 19:11:29 10° S
Cosmos 2237 Rocket 3.0 19:04:46 19° SSE 19:07:36 28° ESE 19:12:19 10° NE
Cosmos 2322 Rocket 4.0 19:03:01 10° WSW 19:08:12 35° NW 19:13:24 10° NNE
Helios 1A 4.4 19:04:36 10° N 19:08:25 40° WNW 19:12:13 10° SW
MOS 1 Rocket 3.9 19:06:49 25° ESE 19:09:15 43° ENE 19:14:11 10° N
ACS3 Solar Sail 1.9 19:05:10 11° SSE 19:11:20 81° ENE 19:17:46 10° N
Cosmos 1814 Rocket 3.9 19:06:28 10° S 19:11:44 67° ESE 19:16:58 10° NNE
NOSS 2-1 (E) 3.5 19:10:17 10° NW 19:14:01 80° SW 19:16:31 28° SE
Cosmos 44 Rocket 4.2 19:09:38 10° NW 19:14:07 42° WSW 19:17:37 15° S
BlueWalker 3 1.9 19:10:31 10° WNW 19:14:16 70° SSW 19:15:32 38° SE
Okean-O 2.6 19:12:12 26° SE 19:14:33 64° ENE 19:18:56 10° N
Cosmos 1515 Rocket 3.4 19:10:54 10° N 19:15:13 70° ENE 19:17:32 27° SSE
Cosmos 2333 Rocket 3.7 19:10:46 10° WSW 19:16:08 39° NW 19:21:33 10° NNE
Cosmos 2219 Rocket 2.9 19:14:19 10° SW 19:19:54 56° NW 19:25:30 10° NNE
Sich 1 3.9 19:20:26 29° E 19:20:26 29° E 19:23:56 10° NNE
MetOp-B 4.1 19:17:46 25° SE 19:20:52 66° ENE 19:26:12 10° N
CSL-04 Rocket 4.3 19:17:58 10° S 19:23:14 54° W 19:28:29 10° NNW
NOSS 2-1 (D) 3.7 19:20:20 10° NW 19:24:02 63° SW 19:26:15 30° SSE
BREEZE-M DEB (TANK) 1.9 19:23:19 10° WSW 19:25:16 66° SSW 19:25:16 66° SSW
Cosmos 1842 3.7 19:22:02 10° NNW 19:25:34 53° W 19:27:54 19° SSW
Cosmos 1766 Rocket 4.4 19:28:32 10° SSW 19:32:45 50° WNW 19:37:02 10° N
USA 267 3.5 19:29:00 24° E 19:33:05 65° NNE 19:39:35 10° WNW
DELTA 2 DEB (DPAF) 3.9 19:30:23 10° NNE 19:34:33 65° ESE 19:36:01 38° S
Cosmos 1500 Rocket 3.8 19:34:22 44° ESE 19:34:37 44° E 19:38:47 10° NNE
SWARM A 4.3 19:34:28 45° S 19:35:27 85° W 19:38:59 10° N
IRS-1C Rocket 4.1 19:33:38 36° SE 19:35:42 62° ENE 19:40:56 10° N
Cosmos 1980 3.9 19:30:39 10° S 19:36:04 48° ESE 19:41:31 10° NE
Cosmos 2369 Rocket 3.8 19:33:10 10° NNW 19:37:42 23° NE 19:39:53 19° ENE
BREEZE-M R/B 4.3 19:34:01 10° W 19:38:49 77° S 19:49:01 23° ESE
Cosmos 1743 Rocket 4.3 19:39:38 35° ENE 19:39:38 35° ENE 19:43:00 10° NNE
Meteor 1-13 Rocket 4.3 19:33:46 10° NNW 19:39:44 90° E 19:43:01 28° S
Cosmos 2298 Rocket 4.5 19:35:18 10° NNW 19:40:25 46° ENE 19:41:45 38° E
Cosmos 2322 4.1 19:35:01 10° SW 19:40:38 66° WNW 19:46:18 10° NNE
USA 32 4.0 19:36:45 10° N 19:41:59 65° E 19:43:42 41° SE
USA 276 3.1 19:39:39 10° W 19:41:31 37° W 19:41:31 37° W
Spot 2 Rocket 3.7 19:41:51 42° ESE 19:43:01 50° ENE 19:47:52 10° N
Cosmos 2150 Rocket 4.3 19:40:34 10° NNW 19:45:36 49° ENE 19:46:42 42° E
MOS 1 4.5 19:42:10 23° S 19:45:51 71° WSW 19:51:34 10° NNW
Cosmos 1707 3.9 19:43:47 10° NNW 19:47:04 35° W 19:48:45 22° SW
Cosmos 1315 Rocket 2.6 19:43:55 10° N 19:47:54 82° ENE 19:48:16 71° SE
CZ-4 R/B 4.2 19:46:53 10° WSW 19:48:32 12° W 19:50:13 10° WNW
Cosmos 1428 Rocket 4.3 19:42:33 10° N 19:48:42 79° E 19:51:28 35° SSE
Meteor 2-10 4.1 19:44:16 15° S 19:48:55 86° E 19:54:37 10° NNE
Cosmos 1733 3.1 19:49:19 59° SW 19:49:47 69° WNW 19:53:14 10° N
In-Cosmos 22 4.4 19:44:10 10° NNW 19:49:54 73° W 19:53:04 27° S
Cosmos 1570 Rocket 4.0 19:49:52 41° SSE 19:51:29 58° ESE 19:56:39 10° NNE
Cosmos 1408 Rocket 3.4 19:50:27 47° S 19:51:40 84° E 19:56:06 10° N
Cosmos 1975 4.5 19:57:50 22° NE 19:57:50 22° NE 19:59:33 10° NNE
NOSS 3-4 (A) 4.5 19:50:58 10° NW 19:57:05 42° NNE 20:00:34 26° E
NOSS 3-4 (C) 4.5 19:51:04 10° NW 19:57:12 42° NNE 20:00:40 26° E
Cosmos 1536 3.5 19:55:07 22° SW 19:57:18 50° WNW 20:01:03 10° N
Lacrosse 4 Rocket 3.7 19:54:58 10° WNW 19:58:07 20° WSW 20:00:26 13° SSW
COSMOS 2428 3.3 19:54:08 10° SW 19:59:46 59° NW 20:05:27 10° NNE
Cosmos 1818 4.4 19:55:03 10° WSW 20:00:23 51° NW 20:05:45 10° NE
Nadezhda 4 Rocket 4.3 19:55:23 10° NNW 20:01:33 64° W 20:05:35 23° SSW
Cosmos 2195 Rocket 4.3 19:55:28 10° N 20:01:37 87° E 20:03:57 41° S
Meteor 1-23 Rocket 4.1 19:56:03 10° N 20:01:43 84° ENE 20:03:21 48° SSE
Cosmos 1092 Rocket 3.9 19:57:27 10° N 20:03:47 76° E 20:05:51 45° SSE
SL-16 R/B 4.0 20:07:18 16° ENE 20:07:18 16° ENE 20:08:52 10° NE
Cosmos 1943 Rocket 2.2 19:59:26 10° NNW 20:04:57 74° WSW 20:06:28 48° S
SL-14 R/B 3.5 20:05:53 10° N 20:09:04 61° N 20:09:04 61° N
Terra 1.7 20:09:10 65° S 20:09:51 83° WSW 20:14:36 10° NNW
Cosmos 2026 Rocket 3.9 20:04:16 10° N 20:10:35 86° E 20:12:32 47° SSE
USA 59 Rocket 1.5 20:07:24 10° WNW 20:10:57 30° SW 20:11:54 27° SSW
Cosmos 158 Rocket 3.6 20:13:21 75° ESE 20:13:21 75° ESE 20:18:12 10° NNE
Cosmos 1805 Rocket 3.4 20:14:27 84° NNW 20:14:27 84° NNW 20:18:40 10° N
Meteor 1-11 Rocket 4.0 20:09:43 15° SSW 20:14:26 66° WNW 20:20:00 10° N
CRYOSAT 2 4.5 20:09:54 10° N 20:14:48 73° W 20:16:10 47° SSW
Ariane Rocket 2.8 20:14:46 70° SE 20:15:16 79° ENE 20:20:22 10° NNW
Cosmos 1125 Rocket 3.9 20:12:27 10° NNW 20:17:32 54° WSW 20:18:45 44° SSW
SPOT 3 Rocket 3.4 20:17:15 70° SE 20:17:46 79° ENE 20:22:56 10° NNW
Cosmos 1634 Rocket 3.9 20:17:05 55° SE 20:18:18 66° E 20:24:35 10° NNE
ERS-1 Rocket 3.3 20:19:35 46° SSW 20:20:46 59° W 20:25:46 10° NNW
Cosmos 839 Rocket 4.4 20:12:13 10° SSW 20:20:55 80° SE 20:27:51 10° NE
Cosmos 2278 Rocket 3.2 20:15:42 10° NW 20:20:57 40° WSW 20:22:57 30° SSW
Meteor 2-9 Rocket 4.4 20:20:43 27° SSW 20:23:36 63° WNW 20:29:00 10° N
BREEZE-M DEB (TANK) 4.4 20:20:38 10° W 20:24:22 78° S 20:26:07 51° ESE
Cosmos 1862 Rocket 4.3 20:20:39 10° N 20:24:00 43° NNE 20:24:00 43° NNE
SPOT 5 4.2 20:24:19 24° SW 20:26:13 32° W 20:30:20 10° NNW
Cosmos 1707 Rocket 4.1 20:25:49 10° N 20:29:24 53° NNE 20:29:24 53° NNE
Cosmos 2034 Rocket 4.4 20:26:34 18° SSW 20:31:11 59° WNW 20:37:19 10° N
Celestis-02/Orion 38 4.4 20:28:08 10° NNE 20:33:19 87° WNW 20:34:00 68° SW
Okean O Rocket 4.3 20:32:44 10° WSW 20:35:10 14° W 20:37:36 10° NW
Cosmos 2208 Rocket 3.9 20:35:48 75° SW 20:36:15 84° WNW 20:41:37 10° NNE
USA 215 3.1 20:33:35 10° ENE 20:40:09 71° SE 20:46:40 10° SW
Cosmos 1656 Rocket 3.7 20:40:44 10° NNW 20:46:20 70° NE 20:46:20 70° NE
Meteor 1-21 4.4 20:41:19 10° NNW 20:47:00 65° W 20:47:41 60° SW
Cosmos 2228 Rocket 3.6 20:42:46 10° NNW 20:46:31 59° NNW 20:46:31 59° NNW
Cosmos 2237 Rocket 2.7 20:46:17 13° SW 20:51:19 56° NW 20:56:53 10° NNE
Cosmos 2297 3.7 20:48:25 10° NNW 20:53:48 70° NE 20:53:48 70° NE
ARIANE 5 R/B 4.3 20:56:43 25° NNE 20:56:43 25° NNE 20:59:02 10° N
ACS3 Solar Sail 3.9 20:51:26 10° SW 20:56:08 21° W 21:00:52 10° NW
Cosmos 2279 Rocket 3.9 21:06:50 81° WSW 21:07:04 84° W 21:13:20 10° N
NOSS 3-3 (C) 4.1 21:09:29 57° NE 21:09:29 57° NE 21:14:41 10° NE
BREEZE-M DEB (TANK) 3.5 20:59:18 10° W 21:10:46 69° WSW 21:10:46 69° WSW
USA 267 3.3 21:16:21 61° SW 21:16:21 61° SW 21:22:39 10° WNW
Cosmos 2369 Rocket 2.5 21:16:44 10° NNW 21:21:39 66° NNW 21:21:39 66° NNW
NOSS 3-3 (A) 4.0 21:25:46 70° N 21:25:46 70° N 21:31:56 10° NE
Cosmos 1607 4.4 21:44:29 57° NE 21:44:29 57° NE 21:49:29 10° NE
Cosmos 1943 Rocket 4.5 21:45:30 10° WNW 21:47:41 12° W 21:47:58 12° W
SL-16 R/B 2.9 21:49:08 52° N 21:49:08 52° N 21:53:40 10° NNE
Terra 4.4 21:47:52 12° W 21:48:11 12° W 21:49:49 10° WNW
NOSS 3-4 (A) 3.9 21:41:43 10° NW 21:47:59 69° W 21:47:59 69° W
NOSS 3-4 (C) 3.8 21:41:49 10° NW 21:48:05 70° W 21:48:05 70° W
Meteor 2-5 Rocket 4.5 21:48:35 10° N 21:53:14 50° NNE 21:53:14 50° NNE
Cosmos 2266 Rocket 4.4 21:50:00 10° NNW 21:55:29 55° WNW 21:55:29 55° WNW
Cosmos 2344 4.3 21:58:29 10° NW 22:06:08 54° NE 22:10:20 34° E
Meteor 1-24 Rocket 4.5 22:10:14 10° NNW 22:14:47 53° N 22:14:47 53° N
USA 215 3.6 22:16:42 10° ENE 22:23:07 60° NNW 22:29:31 10° W
ATLAS 2AS CENTAUR R/B 4.0 22:33:45 10° NW 22:40:04 35° NNE 22:43:40 22° ENE
ATLAS CENTAUR R/B 4.4 23:11:26 12° N 23:11:26 12° N 23:12:18 10° N
Cosmos 1980 Rocket 3.9 23:25:42 10° NNW 23:30:27 27° NE 23:31:54 24° ENE
SL-16 R/B 4.5 23:30:58 14° WNW 23:33:16 18° NW 23:37:04 10° N
CZ-2C R/B 4.1 23:40:58 30° ENE 23:40:58 30° ENE 23:45:11 10° N
USA 281 4.3 23:47:53 25° E 23:51:00 39° NE 23:57:01 10° NNW
Cosmos 2315 Rocket 4.3 23:54:43 61° N 23:54:43 61° N 23:59:46 10° N
